Regional Weather Roundup
Issued by NWS Goodland, KS

Home | Current Version | Previous Version | Text Only | Print | Product List | Glossary On
Versions: 1 2 3 4 5 6 7 8 9 10 11 12 13 14 15 16 17 18 19 20 21 22 23 24 25 26 27 28 29 30 31 32 33 34 35 36 37 38 39 40 41 42 43 44 45 46 47 48 49 50
000
ASUS43 KGLD 301008
RWRGLD

GOODLAND FORECAST AREA HOURLY WEATHER ROUNDUP
NATIONAL WEATHER SERVICE GOODLAND KS
400 AM MDT FRI SEP 30 2016

...OFFICIAL OBSERVATIONS...

CITY           SKY/WX    TMP DP  RH WIND       PRES   REMARKS
GOODLAND KS    CLEAR     47  39  74 S13       30.23F
HILL CITY KS   CLOUDY    42  39  89 CALM      30.30S
IMPERIAL NEB   CLOUDY    45  42  89 SE8       30.25F
MCCOOK NEB     CLEAR     45  42  89 E5        30.28F
AKRON CO       CLOUDY    49  40  71 S10       30.21S
BURLINGTON CO  CLEAR     48  38  68 SE12      30.22F
LIMON CO       CLOUDY    37  35  92 CALM      30.24F
$$

...UNOFFICIAL OBSERVATIONS...

CITY           SKY/WX    TMP DP  RH WIND       PRES   REMARKS
COLBY KS       CLEAR     46  45  93 SE9       30.27S
LENORA KS        N/A     45  32  60 MISG        N/A
NORTON KS      CLEAR     45  39  81 CALM      30.28S
SHARON SPRINGS   N/A     47  41  80 SE10        N/A
KIT CARSON CO    N/A     51  41  69 MISG        N/A
$$




USA.gov is the U.S. government's official web portal to all federal, state and local government web resources and services.